Regional Weather Roundup
Issued by NWS Cleveland, OH

Home | Current Version | Previous Version | Text Only | Print | Product List | Glossary On
Versions: 1 2 3 4 5 6 7 8 9 10 11 12 13 14 15 16 17 18 19 20 21 22 23 24 25 26 27 28 29 30 31 32 33 34 35 36 37 38 39 40 41 42 43 44 45 46 47 48 49 50
000
ASUS41 KCLE 230312
RWRCLE
OHIO REGIONAL WEATHER ROUNDUP
NATIONAL WEATHER SERVICE WILMINGTON, OH
1100 PM EDT WED MAR 22 2017

NOTE: "FAIR" INDICATES FEW OR NO CLOUDS BELOW 12,000 FEET WITH NO
SIGNIFICANT WEATHER AND/OR OBSTRUCTIONS TO VISIBILITY.

OHZ001>008-015>018-024>027-034-035-043-044-230400-
   NORTHWEST OHIO

CITY           SKY/WX    TMP DP  RH WIND       PRES   REMARKS
DEFIANCE       FAIR      27  14  58 SE8       30.54S WCI  19
FINDLAY        FAIR      27  15  61 E8        30.53R WCI  19
TOLEDO EXPRESS FAIR      25  14  63 SE3       30.55R
TOLEDO EXEC    FAIR      25  17  72 SE5       30.56R WCI  19
LIMA           FAIR      26  19  74 E8        30.51S WCI  18
$$

OHZ009>014-019>023-028>033-038-089-230400-
   NORTHEAST OHIO

CITY           SKY/WX    TMP DP  RH WIND       PRES   REMARKS
CLE-HOPKINS    FAIR      26  13  57 NE7       30.57F WCI  18
CLE-LAKEFRONT  FAIR      29  17  61 N8        30.55F WCI  21
CUY CO. ARPT   PTCLDY    23  16  74 CALM      30.55S
LORAIN-ELYRIA  FAIR      24  13  62 CALM      30.55S
ASHTABULA      FAIR      22  14  71 CALM      30.54F
AKRON-CANTON   FAIR      22  11  62 NE9       30.51S WCI  12
WOOSTER        FAIR      23  14  68 NE8       30.52S WCI  14
MANSFIELD      FAIR      23  14  68 NE6       30.50S WCI  16
YOUNGSTOWN     FAIR      21   9  59 CALM      30.52S
$$

OHZ042-051>053-060>062-070>072-077>081-230400-
  SOUTHWEST OHIO

CITY           SKY/WX    TMP DP  RH WIND       PRES   REMARKS
CINC-COVINGTON FAIR      35  19  52 E12       30.46S WCI  27
CINC-LUNKEN    FAIR      32  21  64 NE8       30.50S WCI  25
HAMILTON       FAIR      33  20  58 NE8       30.50S WCI  26
DAYTON         FAIR      28  17  63 NE10      30.49F WCI  19
WRIGHT-PAT AFB FAIR      28  18  65 NE9       30.50S WCI  20
DAYTON GENERAL FAIR      30  19  63 NE10      30.47S WCI  21
WILMINGTON     FAIR      28  21  75 NE12      30.48R WCI  18
$$

OHZ036-037-039>041-045>050-054>059-063>069-073>076-082>088-230400-
  CENTRAL AND SOUTHEAST OHIO

CITY           SKY/WX    TMP DP  RH WIND       PRES   REMARKS
COLUMBUS       FAIR      30  17  58 NE8       30.51R WCI  22
OSU AIRPORT    FAIR      25  18  74 N7        30.51R WCI  17
BOLTON FIELD   FAIR      28  19  68 N7        30.51R WCI  21
RICKENBACK AFB FAIR      29  16  57 NE9       30.51R WCI  21
NEWARK         FAIR      30  13  49 NE5       30.50R WCI  25
MARION         FAIR      22  15  75 NE7       30.53R WCI  13
LANCASTER      FAIR      32  17  54 NE9       30.50R WCI  24
ZANESVILLE     FAIR      29  12  49 N3        30.50R
NEW PHILLY     FAIR      28  11  48 N8        30.52S WCI  20
$$



USA.gov is the U.S. government's official web portal to all federal, state and local government web resources and services.